AirNav   Air Wisconsin pilot careers
 
 1737 users online  

3Y2 George L Scott Municipal Airport
West Union, Iowa, USA

GOING TO WEST UNION?


FAA INFORMATION EFFECTIVE 13 SEPTEMBER 2018

Location

FAA Identifier: 3Y2
Lat/Long: 42-59-06.8000N / 091-47-26.3000W
42-59.113333N / 091-47.438333W
42.9852222 / -91.7906389
(estimated)
Elevation: 1231.8 ft. / 375.5 m (surveyed)
Variation: 01W (2020)
From city: 1 mile NE of WEST UNION, IA
Time zone: UTC -5 (UTC -6 during Standard Time)
Zip code: 52175

Airport Operations

Airport use: Open to the public
Activation date: 01/1964
Control tower: no
ARTCC: MINNEAPOLIS CENTER
FSS: FORT DODGE FLIGHT SERVICE STATION
NOTAMs facility: FOD (NOTAM-D service available)
Attendance: UNATNDD
Wind indicator: lighted
Segmented circle: no
Lights: ACTVT PAPI RYS 17 & 35 - CTAF.
Beacon: white-green (lighted land airport)
Operates sunset to sunrise.

Airport Communications

CTAF/UNICOM: 122.8
WX AWOS-3 at DEH (18 nm N): 120.925 (563-382-2990)
WX AWOS-3 at OLZ (20 nm SW): 119.675 (319-283-3518)
  • APCH/DEP SVC PRVDD BY MINNAEPOLIS ARTCC ON FREQ 118.85 (LA CROSSE RCAG).

Nearby radio navigation aids

VOR radial/distance  VOR name  Freq  Var
UKNr207/20.9WAUKON VOR/DME116.6005E
ALOr046/37.1WATERLOO VOR/DME112.2000E

 
NDB name  Hdg/Dist  Freq  Var  ID
WAPSIE012/32.720600EIIB .. .. -...

Airport Services

Parking: hangars and tiedowns
Airframe service: NONE
Powerplant service: NONE
Bottled oxygen: NONE
Bulk oxygen: NONE

Runway Information

Runway 17/35

Dimensions: 4149 x 60 ft. / 1265 x 18 m
Surface: concrete, in fair condition
Weight bearing capacity: 
Single wheel: 21.0
Double wheel: 21.0
Runway edge lights: medium intensity
RUNWAY 17  RUNWAY 35
Latitude: 42-59.452100N42-58.774705N
Longitude: 091-47.496832W091-47.378785W
Elevation: 1231.8 ft.1196.1 ft.
Traffic pattern: leftleft
Runway heading: 174 magnetic, 173 true354 magnetic, 353 true
Markings: nonprecision, in good conditionnonprecision, in good condition
Visual slope indicator: 2-light PAPI on left (3.00 degrees glide path)
PAPI NSTD; KEY CTAF 5 TIMES.
2-light PAPI on left (3.00 degrees glide path)
PAPI NSTD; KEY CTAF 5 TIMES.
Touchdown point: yes, no lightsyes, no lights

Airport Ownership and Management from official FAA records

Ownership: Publicly-owned
Owner: CITY OF WEST UNION
P.O. BOX 151
WEST UNION, IA 52175-0151
Phone 563-422-3908
Manager: LEROY SOPPE
10184 240TH STREET
WEST UNION, IA 52175
Phone (563) 422-5842

Airport Operational Statistics

Aircraft based on the field: 10
Single engine airplanes: 9
Gliders airplanes: 1
    
Aircraft operations: avg 43/week *
61% transient general aviation
39% local general aviation
* for 12-month period ending 17 July 2017

Additional Remarks

RY 17 PAPI UNUSBL BYD 7 DEG RIGHT OF CNTRLN.

Instrument Procedures

NOTE: All procedures below are presented as PDF files. If you need a reader for these files, you should download the free Adobe Reader.

NOT FOR NAVIGATION. Please procure official charts for flight.
FAA instrument procedures published for use from 13 September 2018 at 0901Z to 11 October 2018 at 0900Z.

 
IAPs - Instrument Approach Procedures
RNAV (GPS) RWY 17   download (185KB)
RNAV (GPS) RWY 35   download (198KB)
NOTE: Special Take-Off Minimums/Departure Procedures apply   download (239KB)

Other nearby airports with instrument procedures:

KDEH - Decorah Municipal Airport (18 nm N)
KOLZ - Oelwein Municipal Airport (20 nm SW)
KCJJ - Ellen Church Field Airport (27 nm NW)
KPDC - Prairie du Chien Municipal Airport (29 nm E)
KIIB - Independence Municipal Airport (32 nm S)
 
Loc | Ops | Rwys | IFR | FBO | Links
Com | Nav | Svcs | Stats | Notes


 
Area around 3Y2 (George L Scott Municipal Airport)
 
Road maps at: MapQuest Bing Google
 
Aerial photo
WARNING: Photo may not be current or correct
Aerial photo of 3Y2 (George L Scott Municipal Airport)
Photo by Ray Rich
Photo taken 12-Sep-2012
looking northeast.

Do you have a better or more recent aerial photo of George L Scott Municipal Airport that you would like to share? If so, please send us your photo.

 
Sectional chart

 
Airport distance calculator
Flying to George L Scott Municipal Airport? Find the distance to fly.

From to 3Y2

Sunrise and sunset
Times for 19-Sep-2018
 Local
(UTC-5)
 Zulu
(UTC)
Morning civil twilight06:2411:24
Sunrise06:5211:52
Sunset19:1000:10
Evening civil twilight19:3800:38

Current date and time
Zulu (UTC)  19-Sep-2018 18:12:29
Local (UTC-5)  19-Sep-2018 13:12:29
 
METAR
KDEH 
17nm N 
191755Z AUTO 00000KT 5SM -RA SCT006 19/19 A3003 RMK AO2 P0001
KOLZ 
21nm S 
191755Z AUTO VRB05G12KT 6SM -RA SCT007 BKN027 BKN036 19/19 A3005 RMK AO2 P0008
KPDC 
30nm E 
191755Z AUTO 08005KT 5SM -DZ SCT025 SCT038 OVC120 19/18 A3001 RMK AO2 60001 T01860176 10188 20180
KIIB 
33nm S 
191755Z AUTO 34012KT 10SM SCT006 SCT080 OVC090 19/19 A3004 RMK AO2 P0001 T01940185
TAF
KALO 
37nm SW 
191731Z 1918/2018 11007KT 4SM -TSRA SCT006 BKN025CB FM192000 13008KT P6SM BKN020 FM192200 13008KT P6SM BKN060 FM200400 14008KT 5SM BR VCTS OVC070CB FM201100 14007KT P6SM BKN060 FM201500 18011KT P6SM SCT060
NOTAMs
Click for the latest NOTAMs
NOTAMs are issued by the DoD/FAA and will open in a separate window not controlled by AirNav.

 

 
 

Would you like to see your business listed on this page?

 If your business provides an interesting product or service to pilots, flight crews, aircraft, or users of the George L Scott Municipal Airport, you should consider listing it here.  To start the listing process, click on the button below
 
Add a business
 

Other Pages about George L Scott Municipal Airport

Page from the Iowa Airport Directory
 
Update a link
 
Copyright © AirNav, LLC. All rights reserved. Privacy Policy  Contact